Meteo Giornale » Osservazioni meteo Italia » Cagliari-Elmas

ore: 15:20 - Osservazioni Meteo Cagliari-Elmas
Lat. 39° 15' N Lon. 9° 4' E Alt. 4 metri s.l.m.

poco_nuvoloso Europe/Rome

29 °C

Poco Nuvoloso

Temp. 24 Ore

25 °C

31 °C

Sud-Est

27.8 Km/h

Dew point 21 °C

Umidità 62 %

Visibilità  10 Km

Il sole sorge alle ore 06:16

Il sole tramonta alle ore 20:44

Data e Ora Cielo e Fenomeni T °C DP °C Um. % Pres. hPa Vis. km Vento km/h
Oggi h: 15:20 poco_nuvoloso Poco Nuvoloso 29 21 62 1008 10 SE 27.8
Oggi h: 14:50 sereno Sereno 30 21 58 1010 10 S 22.2
Oggi h: 14:20 sereno Sereno 30 21 58 1009 10 S/SE 22.2
Oggi h: 13:50 sereno Sereno 31 21 55 1009 10 S 18.5
Oggi h: 13:20 sereno Sereno 31 22 58 1009 10 S 18.5
Oggi h: 12:50 sereno Sereno 30 21 58 1009 10 S 22.2
Oggi h: 12:20 sereno Sereno 29 22 66 1011 10 S/SE 11.1
Oggi h: 11:50 sereno Sereno 28 23 74 1010 10 S 18.5
Oggi h: 11:20 sereno Sereno 29 22 66 1009 10 S 18.5
Oggi h: 10:50 sereno Sereno 29 21 62 1009 10 S 16.7
Oggi h: 10:20 poco_nuvoloso Poco Nuvoloso 28 23 74 1009 10 N 0
Oggi h: 09:50 poco_nuvoloso Poco Nuvoloso 28 22 69 1009 10 S/SO 9.3
Oggi h: 09:20 sereno Sereno 28 21 65 1010 10 N 1.8
Oggi h: 08:50 poco_nuvoloso Poco Nuvoloso 27 22 74 1009 10 N 3.7
Oggi h: 08:20 poco_nuvoloso Poco Nuvoloso 28 21 65 1009 10 N 5.5
Oggi h: 07:50 poco_nuvoloso Poco Nuvoloso 28 20 61 1009 10 O 9.3
Oggi h: 07:20 poco_nuvoloso Poco Nuvoloso 28 20 61 1008 10 SE 22.2
Oggi h: 06:50 poco_nuvoloso Poco Nuvoloso 27 20 65 1009 10 N 7.4
Oggi h: 06:20 sereno Sereno 27 20 65 1007 10 SE 20.3
Oggi h: 05:50 sereno Sereno 27 20 65 1008 10 SE 18.5
Oggi h: 05:20 sereno Sereno 27 20 65 1008 10 SE 22.2
Oggi h: 04:50 sereno Sereno 27 20 65 1009 10 SE 18.5
Oggi h: 04:20 sereno Sereno 26 21 73 1009 10 SE 9.3
Oggi h: 03:50 sereno Sereno 26 21 73 1009 10 N 3.7
Oggi h: 03:20 sereno Sereno 26 22 78 1010 10 N 5.5
Oggi h: 02:50 sereno Sereno 25 23 88 1010 10 S/SE 11.1
Oggi h: 02:20 sereno Sereno 26 22 78 1010 10 S 11.1
Oggi h: 01:50 sereno Sereno 26 22 78 1010 10 S 13
Oggi h: 01:20 sereno Sereno 26 22 78 1010 10 S 14.8
Oggi h: 00:50 sereno Sereno 26 22 78 1011 10 S 14.8
Oggi h: 00:20 sereno Sereno 26 22 78 1011 10 S 11.1
Ieri h: 23:50 sereno Sereno 26 22 78 1011 10 S 14.8
Ieri h: 23:20 sereno Sereno 26 23 83 1011 10 S 11.1
Ieri h: 22:50 sereno Sereno 26 23 83 1012 10 S 13
Ieri h: 22:20 sereno Sereno 26 23 83 1012 10 S 14.8
Ieri h: 21:50 sereno Sereno 26 23 83 1011 10 S 14.8
Ieri h: 21:20 sereno Sereno 26 23 83 1011 10 S/SO 18.5
Ieri h: 20:50 sereno Sereno 27 23 78 1011 10 S 18.5
Ieri h: 20:20 sereno Sereno 27 22 74 1011 10 S 18.5
Ieri h: 19:50 sereno Sereno 27 22 74 1012 10 S 18.5
Ieri h: 19:20 sereno Sereno 28 22 69 1012 10 S 18.5
Ieri h: 18:50 sereno Sereno 28 22 69 1011 10 S 20.3
Ieri h: 18:20 sereno Sereno 29 22 66 1012 10 S 16.7
Ieri h: 17:50 sereno Sereno 30 21 58 1012 10 S 18.5
Ieri h: 16:50 sereno Sereno 31 20 52 1012 10 S/SE 20.3
Ieri h: 16:20 poco_nuvoloso Poco Nuvoloso 31 19 48 1013 10 S/SE 22.2
Ieri h: 15:50 poco_nuvoloso Poco Nuvoloso 31 19 48 1013 10 S/SE 20.3